Regional Weather Roundup
Issued by NWS

Home | Current Version | Previous Version | Graphics & Text | Print | Product List | Glossary Off
Versions: 1 2 3 4 5 6 7 8 9 10 11 12 13 14 15 16 17 18 19 20 21 22 23 24 25 26 27 28 29 30 31 32 33 34 35 36 37 38 39 40 41 42 43 44 45 46 47 48 49 50

000
ASUS43 KMKX 141221
RWRWI

WISCONSIN REGIONAL WEATHER ROUNDUP
NATIONAL WEATHER SERVICE MILWAUKEE/SULLIVAN WI
600 AM CST SUN FEB 14 2016

NOTE: "FAIR" INDICATES FEW OR NO CLOUDS BELOW 12,000 FEET WITH NO
SIGNIFICANT WEATHER AND/OR OBSTRUCTIONS TO VISIBILITY.

WIZ001-002-006>008-014>016-023>028-141300-
NORTHWEST WISCONSIN

CITY           SKY/WX    TMP DP  RH WIND       PRES   REMARKS
SUPERIOR ARPT  CLOUDY    -4 -10  77 NE3       30.20F
6HR MIN TEMP: -12; 6HR MAX TEMP:  -4;

ASHLAND        CLOUDY   -19 -23  81 E5        30.24F WCI -32
6HR MIN TEMP: -20; 6HR MAX TEMP: -13;

HAYWARD        CLOUDY     1 -12  54 SE6       30.17F WCI -10
6HR MIN TEMP: -18; 6HR MAX TEMP:   1;

SIREN          CLOUDY     6  -8  52 SE6       30.14F WCI  -4
6HR MIN TEMP: -12; 6HR MAX TEMP:   7;

CUMBERLAND     CLOUDY     1  -9  60 SE9       30.14F WCI -14
RICE LAKE      CLOUDY     3  -9  56 SE13      30.18F WCI -14
6HR MIN TEMP:  -4; 6HR MAX TEMP:   3;

CHETEK         CLOUDY     2  -9  58 MISG      30.19F
6HR MIN TEMP:  -8; 6HR MAX TEMP:   2;

LADYSMITH      CLOUDY    -4 -13  64 E6        30.23S WCI -16
6HR MIN TEMP: -12; 6HR MAX TEMP:  -4;

EAU CLAIRE     CLOUDY     2 -10  57 E6        30.20F WCI  -9
6HR MIN TEMP:  -9; 6HR MAX TEMP:   3;

MENOMONIE      CLOUDY     6  -6  57 E8        30.19F WCI  -7
6HR MIN TEMP:  -3; 6HR MAX TEMP:   6;

NEW RICHMOND   FLURRIES   6  -6  57 SE10      30.12F WCI  -8
6HR MIN TEMP:   1; 6HR MAX TEMP:   6;

OSCEOLA        CLOUDY     8  -4  59 SE14      30.15F WCI  -9
6HR MIN TEMP:   2; 6HR MAX TEMP:   8;

$$

WIZ003>005-009-010-017-018-141300-
NORTH CENTRAL WISCONSIN

CITY           SKY/WX    TMP DP  RH WIND       PRES   REMARKS
MANITOWISH WTR PTCLDY   -22 -27  76 CALM      30.20F
6HR MIN TEMP: -24; 6HR MAX TEMP: -19;

ARBOR VITAE    CLOUDY   -15 -21  75 CALM      30.21S
6HR MIN TEMP: -16; 6HR MAX TEMP: -11;

WOODRUFF       CLOUDY   -15 -21  75 CALM      30.21S
6HR MIN TEMP: -16; 6HR MAX TEMP: -11;

RHINELANDER    CLOUDY   -18 -24  74 CALM      30.23S
6HR MIN TEMP: -19; 6HR MAX TEMP: -13;

EAGLE RIVER    CLOUDY   -22 -30  67 CALM      30.22S
LAND O LAKES   CLOUDY   -26 -33  70 CALM      30.21F
6HR MIN TEMP: -26; 6HR MAX TEMP: -21;

PHILLIPS       CLOUDY   -22 -28  76 CALM      30.19F
6HR MIN TEMP: -23; 6HR MAX TEMP: -17;

TOMAHAWK       PTCLDY   -23 -29  74 CALM      30.24F
6HR MIN TEMP: -24; 6HR MAX TEMP: -18;

MEDFORD        CLOUDY    -6 -14  68 SE6       30.20F WCI -18
6HR MIN TEMP: -15; 6HR MAX TEMP:  -5;

MERRILL        PTCLDY   -20 -27  72 CALM      30.27F
$$

WIZ029-030-035-036-043>047-141300-
CENTRAL WISCONSIN

CITY           SKY/WX    TMP DP  RH WIND       PRES   REMARKS
WAUSAU         CLOUDY   -12 -18  74 E5        30.27F WCI -24
6HR MIN TEMP: -14; 6HR MAX TEMP:  -8;

MOSINEE        CLEAR     -8 -15  71 E7        30.27F WCI -22
MARSHFIELD     CLOUDY    -6 -14  68 E6        30.23F WCI -19
6HR MIN TEMP:  -8; 6HR MAX TEMP:  -4;

STEVENS POINT  CLOUDY   -17 -22  77 CALM      30.29F
6HR MIN TEMP: -18; 6HR MAX TEMP: -12;

WAUPACA        CLOUDY   -13 -19  73 CALM      30.34F
6HR MIN TEMP: -13; 6HR MAX TEMP:  -7;

WAUTOMA        CLOUDY   -17 -24  70 CALM      30.33F
6HR MIN TEMP: -17; 6HR MAX TEMP: -12;

WISC RAPIDS    PTCLDY    -3 -13  62 SE6       30.29F WCI -15
6HR MIN TEMP: -10; 6HR MAX TEMP:  -3;

CAMP DOUGLAS   CLOUDY    -1  -6  78 E5        30.26F WCI -11
6HR MIN TEMP: -13; 6HR MAX TEMP:  -1;

$$

WIZ011>013-019>022-031-037>040-048>050-141300-
NORTHEAST WISCONSIN

CITY           SKY/WX    TMP DP  RH WIND       PRES   REMARKS
ANTIGO         PTCLDY    -9 -15  76 SE5       30.26F WCI -21
6HR MIN TEMP: -18; 6HR MAX TEMP:  -9;

SHAWANO        CLOUDY    -8 -12  79 CALM      30.37R
6HR MIN TEMP:  -8; 6HR MAX TEMP:  -1;

OCONTO         CLOUDY   -15 -19  79 CALM      30.39S
6HR MIN TEMP: -15; 6HR MAX TEMP:  -8;

STURGEON BAY   CLOUDY    -6 -13  71 CALM      30.38S
6HR MIN TEMP:  -4; 6HR MAX TEMP:   1;

GREEN BAY      CLOUDY   -12 -16  82 W3        30.37S
6HR MIN TEMP: -12; 6HR MAX TEMP:  -4;

MANITOWOC      CLOUDY    -5 -11  75 CALM      30.38S
6HR MIN TEMP:  -6; 6HR MAX TEMP:   1;

APPLETON       CLEAR     -2 -11  65 CALM      30.33S
CLINTONVILLE   CLOUDY   -13 -18  77 CALM      30.35F
OSHKOSH        CLOUDY    -5 -13  68 CALM      30.34F
6HR MIN TEMP:  -8; 6HR MAX TEMP:  -1;

$$

WIZ032>034-041-042-053>061-141300-
SOUTHWEST WISCONSIN

CITY           SKY/WX    TMP DP  RH WIND       PRES   REMARKS
LA CROSSE      CLOUDY    11  -3  53 E10       30.22F WCI  -3
6HR MIN TEMP:   3; 6HR MAX TEMP:  11;

SPARTA         CLOUDY     8  -3  60 E6        30.24F WCI  -2
6HR MIN TEMP: -10; 6HR MAX TEMP:   8;

VIROQUA        CLOUDY     8  -2  63 E14       30.16F WCI  -8
6HR MIN TEMP:   4; 6HR MAX TEMP:   8;

BOSCOBEL       FLURRIES  10   1  67 NE6       30.24F WCI   0
6HR MIN TEMP:   0; 6HR MAX TEMP:  10; 6HR PCP: TRACE;

PRAIRIE DU CHI MIX PCPN  13   6  74 SE9       30.22F WCI   1
6HR MIN TEMP:   6; 6HR MAX TEMP:  13;

PLATTEVILLE    CLOUDY    13   8  79 E16       30.20F WCI  -3
6HR MIN TEMP:   9; 6HR MAX TEMP:  13;

$$

WIZ056-057-062-063-064-067-068-141300-
SOUTH CENTRAL WISCONSIN

CITY           SKY/WX    TMP DP  RH WIND       PRES   REMARKS
REEDSBURG      CLOUDY     5  -4  66 CALM      30.27F
6HR MIN TEMP:  -6; 6HR MAX TEMP:   5;

BARABOO/DELLS  CLOUDY     1  -6  70 N3        30.27F
6HR MIN TEMP:  -5; 6HR MAX TEMP:   5;

LONE ROCK      CLOUDY    10   0  63 E14       30.28F WCI  -6
6HR MIN TEMP:  -1; 6HR MAX TEMP:  10;

MINERAL POINT  FLURRIES  14   5  67 E15       30.20F WCI  -1
MADISON        CLOUDY     9  -2  61 SE7       30.30F WCI  -2
6HR MIN TEMP:   4; 6HR MAX TEMP:   9;

MIDDLETON      CLOUDY    11   1  63 SE7       30.29F WCI   0
6HR MIN TEMP:   1; 6HR MAX TEMP:  11;

WATERTOWN      CLOUDY     3  -5  69 E5        30.32F WCI  -6
6HR MIN TEMP:  -1; 6HR MAX TEMP:   3;

MONROE         CLOUDY    12   3  67 SE9       30.25F WCI   0
JANESVILLE     CLOUDY    14   1  57 SE8       30.31F WCI   3
$$

WIZ051-052-058>065-066-070>072-141300-
SOUTHEAST WISCONSIN

CITY           SKY/WX    TMP DP  RH WIND       PRES   REMARKS
MILWAUKEE      MOCLDY     8  -1  66 CALM      30.36F
6HR MIN TEMP:   2; 6HR MAX TEMP:   8;

WAUKESHA       CLEAR     -2  -8  78 CALM      30.35F
MILWAUKEE/TIMM PTCLDY     1  -6  71 CALM      30.36F
RACINE         CLOUDY    10  -2  58 SW8       30.37F WCI  -2
6HR MIN TEMP:   1; 6HR MAX TEMP:  10;

BURLINGTON     CLOUDY    -1  -5  84 NE3       30.34F
6HR MIN TEMP:  -3; 6HR MAX TEMP:   0;

KENOSHA        PTCLDY     7  -2  66 S5        30.36F WCI  -2
6HR MIN TEMP:   1; 6HR MAX TEMP:   7;

FOND DU LAC    CLOUDY    -3 -11  68 S3        30.34F
6HR MIN TEMP:  -9; 6HR MAX TEMP:  -3; 6HR PCP: TRACE;

SHEBOYGAN      CLOUDY    -4 -11  72 CALM      30.36S
6HR MIN TEMP:  -6; 6HR MAX TEMP:  -1;

WEST BEND      CLOUDY    -4  -9  77 CALM      30.34F
JUNEAU         CLOUDY     0  -8  70 E8        30.32F WCI -14
6HR MIN TEMP:  -2; 6HR MAX TEMP:   0;

$$

LSZ147-162-141300-
LAKE SUPERIOR

STATION/POSITION TIME  TEMP    WIND        PRES    WAVE
                       AIR SEA DIR/SP/G            HT/PER
                 (UTC) (F)     (DEG/KT/KT) (MB)    (FT/S)
DEVILS ISLAND    1200    4     160/  9/ 13 1025.9F
$$

LMZ867-665-643>646-141300-
LAKE MICHIGAN

STATION/POSITION TIME  TEMP    WIND        PRES    WAVE
                       AIR SEA DIR/SP/G            HT/PER
                 (UTC) (F)     (DEG/KT/KT) (MB)    (FT/S)
CHAMBERS ISLAND  1100   -4      CALM  /  2 1028.8S
SISTER BAY       1104   -2        CALM       N/A
ALGOMA LAKESHORE 1041             CALM      C1F1C2F2C3F3C4F4C5F5C6F6C7F7C8M1C9M2Ca!


USA.gov is the U.S. government's official web portal to all federal, state and local government web resources and services.